Wind_Speed
8 8 8 8 7 7 7 7 7 8 8 9 9 10 11 11 11 12 12 12 13 13 14 14 14 15 15 15 15 16 16 17 18 18 19 19 19 20 20 21 21 21 21
7 7 6 6 6 6 6 6 7 7 7 8 9 10 10 11 11 12 13 13 14 14 15 15 16 16 16 16 17 17 17 18 19 19 20 20 20 21 21 21 22 22 23
6 6 5 5 5 5 5 5 6 7 7 8 9 9 10 11 11 12 13 14 14 15 16 16 17 17 17 18 18 18 19 19 20 21 21 22 22 22 22 23 23 24 24
6 5 5 5 4 4 5 5 6 7 8 8 9 10 10 11 12 13 13 14 15 15 16 17 17 18 18 18 19 19 20 20 21 21 22 22 23 23 23 24 24 24 25
6 5 5 5 4 5 5 6 7 7 8 9 10 11 12 12 13 14 14 15 16 16 17 17 18 19 19 20 20 20 21 22 22 23 23 24 24 24 25 25 25 26 26
5 5 5 5 5 6 6 7 8 8 9 10 12 12 13 14 15 15 16 16 17 18 18 19 19 20 20 21 21 22 22 23 24 24 25 25 25 26 26 26 27 27 27
5 5 6 6 6 7 7 8 9 10 11 12 13 14 15 15 16 17 17 18 18 19 20 20 21 21 22 22 23 23 24 25 25 26 26 26 27 27 28 28 28 29 29
5 5 6 6 7 8 9 9 10 11 12 13 14 15 16 16 17 18 19 19 20 20 21 22 23 23 23 24 24 25 25 26 26 27 27 28 28 29 29 30 30 31 31
6 6 7 7 8 9 9 10 11 12 13 14 15 15 16 18 18 19 20 21 21 22 22 23 24 24 25 25 25 26 26 27 27 28 28 29 29 30 30 31 31 32 32
7 7 8 9 10 11 12 12 13 14 15 15 16 17 18 19 20 20 21 22 22 23 24 24 25 25 26 26 27 27 27 28 28 29 29 30 30 31 31 32 32 32 33
9 10 10 11 12 12 13 14 15 16 17 17 18 19 19 20 21 22 22 23 24 24 25 26 26 26 27 27 28 28 29 29 29 30 30 31 31 32 32 33 33 33 34
11 12 12 12 13 14 14 15 16 17 18 19 20 21 21 22 23 24 24 25 25 26 26 27 27 28 28 29 29 29 30 30 31 31 32 32 33 33 33 34 34 34 34
13 13 14 14 15 16 16 17 18 19 20 21 22 23 23 24 25 25 26 26 27 27 28 28 28 29 29 29 30 30 31 31 32 32 33 34 34 34 34 34 34 35 35
14 15 16 16 17 18 19 19 20 21 22 23 24 25 25 26 27 27 28 28 28 28 29 29 29 29 30 31 31 31 31 32 33 33 34 34 34 35 35 35 35 35 36
16 17 18 19 20 21 21 22 23 23 24 25 26 27 27 28 29 29 30 30 30 30 30 30 30 31 31 32 32 32 33 33 33 34 34 35 35 35 35 36 36 36 36
19 19 20 21 22 23 24 25 25 26 26 27 28 29 29 30 30 31 31 31 31 31 32 32 32 32 33 33 33 33 34 34 34 34 35 35 35 35 36 36 36 36 36
22 22 23 23 24 25 26 27 27 28 28 29 29 30 31 31 31 32 32 32 32 33 33 33 33 33 34 34 34 34 34 34 35 35 35 35 35 36 36 36 36 36 37
25 25 25 26 26 27 28 29 29 30 30 30 31 31 32 32 32 32 33 33 33 33 34 34 34 34 34 34 34 34 34 35 35 35 35 35 36 36 36 36 37 37 37
28 28 28 28 28 29 30 30 31 31 32 32 32 32 33 33 33 34 34 34 34 34 34 34 34 34 34 34 35 35 35 36 36 36 36 36 36 36 36 37 37 38 38
31 31 31 31 31 31 31 32 32 32 33 33 32 33 33 34 34 34 34 34 34 34 34 34 34 34 34 35 35 35 36 36 37 37 37 36 36 36 37 37 38 38 39
32 32 32 32 32 32 32 32 32 33 33 32 32 33 34 34 34 34 34 34 34 34 34 34 34 34 35 35 35 36 36 37 37 37 37 37 37 37 38 38 38 39 39
32 32 33 33 33 33 33 33 33 33 33 33 33 34 34 35 35 34 34 34 34 34 34 34 35 35 35 35 35 35 36 36 36 37 37 37 38 38 39 39 39 39 39
34 34 34 34 34 33 33 33 33 33 33 33 34 34 35 35 35 34 34 34 34 34 34 35 35 35 35 35 35 36 35 35 35 36 38 39 39 40 40 40 40 40 40
35 34 34 34 33 33 33 33 34 34 33 34 35 35 35 34 34 34 34 34 34 34 35 35 35 35 35 35 36 36 36 36 36 36 38 39 40 40 41 41 41 41 42
35 34 34 34 33 33 33 33 34 34 34 34 34 34 34 34 34 34 34 34 34 34 35 35 35 35 36 36 36 37 37 37 37 37 37 38 39 41 41 42 42 43 43
34 33 33 33 33 33 33 33 33 33 33 34 34 34 34 34 34 34 34 34 34 35 35 35 36 36 37 37 38 38 39 39 39 39 39 39 39 40 42 43 44 44 45
Wind_Direction
225 228 233 239 245 251 255 259 265 271 276 280 282 284 286 287 287 287 289 291 292 293 294 294 293 292 291 290 289 288 287 286 284 284 284 283 282 281 280 278 277 275 273
218 224 231 238 247 254 260 264 268 271 273 277 282 285 286 285 285 286 287 288 290 291 291 292 292 292 291 291 290 289 287 286 285 285 284 284 283 281 280 279 278 277 276
210 218 226 236 248 259 267 271 274 277 278 281 282 284 286 285 286 288 289 289 290 290 290 291 291 291 292 292 291 290 288 287 287 286 285 284 283 282 281 280 279 278 277
209 216 225 237 251 264 272 277 282 285 286 286 286 288 289 288 288 289 290 291 291 290 290 290 291 292 292 292 292 291 291 290 289 288 287 286 284 283 282 281 281 280 279
220 227 233 243 254 264 273 279 283 286 286 286 288 289 290 290 291 291 291 290 290 290 290 290 291 292 292 292 290 290 289 289 289 288 287 286 285 284 283 282 282 281 280
228 236 243 251 261 268 274 280 285 287 287 288 288 289 289 289 289 289 290 290 290 291 291 291 291 291 291 290 290 290 289 289 289 288 287 286 285 285 283 282 281 281 280
232 242 253 260 266 271 276 282 284 286 288 289 288 287 287 288 287 288 288 289 289 290 290 291 291 291 290 290 290 289 289 289 288 288 287 286 286 285 283 282 281 280 280
244 255 264 269 273 276 279 282 286 286 287 289 289 288 287 288 289 289 289 289 289 290 290 291 291 291 291 291 291 290 290 289 289 289 288 287 286 285 284 282 281 280 279
255 263 270 275 279 281 283 285 287 288 289 290 290 290 290 289 289 289 289 289 289 290 291 292 292 292 292 292 292 291 290 290 289 289 288 288 286 285 284 283 282 280 279
260 267 274 278 281 283 284 286 287 288 289 290 291 291 290 290 290 290 289 289 289 290 291 291 292 291 291 291 291 290 290 289 289 289 289 288 287 286 285 283 282 281 279
266 271 276 280 284 286 287 287 288 289 290 290 291 291 291 291 291 291 291 291 291 291 291 291 291 291 291 291 290 290 289 288 288 288 288 288 287 286 285 284 283 282 280
271 274 278 282 285 287 289 290 290 290 291 291 291 291 291 291 291 292 292 292 292 292 291 291 291 291 291 291 291 291 290 289 289 288 288 288 288 287 286 284 283 282 281
273 276 279 282 286 287 289 291 291 292 292 292 292 291 291 291 291 291 291 292 292 292 291 291 291 291 291 292 292 292 291 290 290 289 289 289 288 287 285 284 284 283 282
272 276 279 282 284 286 287 289 290 291 292 293 292 291 291 291 291 291 291 291 292 292 291 291 290 291 291 292 292 292 292 291 291 290 290 289 288 287 285 284 284 283 282
272 275 278 282 284 285 287 288 289 289 290 291 290 290 291 291 290 290 291 291 291 291 291 290 290 290 291 292 292 293 292 291 291 291 290 290 288 287 286 285 284 284 283
273 275 277 280 282 284 286 287 288 289 289 290 289 289 290 290 290 290 290 289 289 289 290 290 290 290 291 291 292 292 291 291 291 290 290 290 288 287 286 286 285 285 284
275 276 278 279 281 282 284 285 287 288 289 289 289 289 289 290 290 289 289 289 289 289 289 290 290 290 290 291 291 291 291 291 291 291 290 289 288 288 287 286 286 285 284
275 277 278 279 280 281 283 284 285 286 287 288 288 288 289 289 289 289 289 289 288 288 289 289 289 289 290 291 291 291 291 292 291 291 290 289 288 287 287 286 286 285 285
274 277 278 279 280 281 282 284 284 285 286 287 288 288 288 289 289 289 288 288 288 289 289 289 289 289 290 290 291 291 292 291 291 291 291 289 288 287 287 287 286 286 285
273 276 278 279 280 281 282 284 284 285 286 287 287 287 288 288 288 288 288 288 289 289 289 289 289 289 289 290 291 292 292 292 292 292 291 290 289 289 288 287 287 287 286
272 275 277 279 280 281 282 283 283 284 285 286 286 286 287 288 287 287 288 288 288 289 289 289 289 289 289 290 291 292 293 293 293 293 292 292 291 291 290 289 288 288 287
271 274 276 278 279 280 281 282 283 284 284 285 285 285 285 287 287 287 287 287 288 288 288 288 289 289 290 290 291 291 293 294 294 294 293 293 293 292 292 291 291 290 289
271 273 275 276 278 279 280 281 282 283 284 284 284 285 286 287 286 286 287 287 287 287 288 288 289 289 290 291 292 292 292 292 294 294 294 294 294 294 294 293 293 292 291
270 272 273 275 277 278 279 280 281 282 283 283 284 286 286 286 285 285 286 287 287 287 288 289 289 290 291 291 292 293 293 293 294 294 295 295 295 295 295 294 294 293 292
269 271 273 275 276 277 278 278 279 281 282 283 285 285 285 284 284 285 286 286 286 287 288 288 289 289 291 291 292 293 294 294 295 295 296 296 296 296 296 295 294 294 293
268 270 272 273 274 275 277 277 279 280 281 282 283 283 283 283 284 285 286 286 286 287 288 287 288 290 290 291 293 294 295 295 295 295 295 295 296 297 297 296 296 295 294
Height
5880 5881 5882 5882 5883 5883 5883 5883 5884 5884 5884 5884 5884 5884 5884 5883 5883 5883 5882 5882 5881 5880 5879 5878 5877 5877 5876 5875 5875 5874 5873 5872 5870 5870 5869 5868 5867 5866 5865 5864 5863 5862 5861
5879 5880 5880 5881 5881 5881 5882 5882 5882 5882 5882 5883 5882 5882 5882 5882 5881 5881 5880 5879 5879 5878 5877 5876 5875 5874 5873 5873 5872 5871 5870 5869 5867 5866 5865 5865 5863 5862 5861 5860 5859 5858 5857
5878 5879 5879 5880 5880 5880 5881 5881 5881 5881 5881 5881 5881 5881 5880 5880 5879 5879 5878 5877 5876 5875 5874 5873 5872 5872 5871 5870 5869 5868 5867 5865 5864 5863 5862 5861 5860 5859 5858 5857 5856 5854 5853
5877 5878 5878 5879 5879 5879 5880 5880 5880 5880 5880 5880 5879 5879 5878 5878 5877 5877 5876 5875 5874 5873 5872 5871 5870 5869 5868 5867 5866 5865 5863 5862 5861 5860 5859 5857 5856 5855 5854 5852 5851 5850 5849
5876 5877 5877 5877 5878 5878 5878 5879 5878 5878 5878 5878 5877 5877 5876 5876 5875 5874 5873 5872 5871 5870 5869 5868 5867 5866 5865 5864 5863 5861 5860 5858 5857 5856 5855 5853 5852 5851 5849 5848 5847 5846 5845
5875 5875 5876 5876 5877 5877 5877 5877 5877 5877 5876 5876 5875 5875 5874 5874 5873 5872 5871 5870 5869 5867 5866 5865 5864 5863 5862 5861 5859 5858 5856 5855 5853 5852 5851 5849 5848 5846 5845 5844 5842 5841 5840
5873 5874 5874 5875 5875 5875 5875 5875 5875 5875 5874 5874 5873 5872 5872 5871 5870 5869 5868 5867 5865 5864 5863 5862 5860 5859 5858 5857 5855 5854 5852 5851 5849 5848 5846 5845 5843 5841 5840 5839 5837 5836 5834
5872 5872 5873 5873 5873 5873 5873 5873 5873 5873 5872 5871 5871 5870 5869 5868 5867 5866 5865 5863 5862 5861 5859 5858 5857 5855 5854 5852 5851 5849 5848 5846 5844 5843 5841 5840 5838 5836 5835 5833 5832 5830 5829
5870 5871 5871 5871 5871 5871 5871 5871 5870 5870 5869 5869 5868 5867 5866 5865 5863 5862 5861 5860 5858 5857 5856 5854 5853 5851 5849 5848 5846 5845 5843 5841 5839 5837 5836 5834 5832 5830 5829 5827 5826 5824 5822
5868 5869 5869 5869 5869 5869 5869 5868 5868 5867 5866 5866 5865 5863 5862 5861 5860 5859 5857 5856 5854 5853 5852 5850 5848 5847 5845 5843 5841 5839 5837 5835 5834 5832 5830 5828 5826 5824 5822 5821 5819 5817 5816
5866 5866 5866 5866 5866 5866 5866 5865 5865 5864 5863 5862 5861 5860 5859 5858 5856 5855 5853 5852 5850 5849 5847 5845 5843 5841 5840 5838 5836 5834 5832 5830 5828 5825 5823 5822 5820 5818 5816 5814 5812 5810 5809
5863 5864 5864 5863 5863 5863 5862 5862 5861 5861 5860 5859 5857 5856 5855 5853 5852 5851 5849 5847 5846 5844 5842 5840 5838 5836 5834 5832 5830 5828 5826 5824 5822 5819 5817 5815 5813 5811 5809 5807 5805 5803 5801
5860 5860 5860 5860 5860 5859 5859 5858 5858 5857 5856 5855 5853 5852 5850 5849 5848 5846 5844 5843 5841 5839 5837 5835 5833 5831 5829 5826 5824 5822 5820 5817 5815 5813 5810 5808 5806 5803 5801 5799 5797 5795 5794
5857 5857 5856 5856 5856 5855 5855 5854 5853 5852 5851 5850 5849 5847 5846 5844 5843 5841 5839 5837 5835 5833 5831 5829 5827 5825 5823 5820 5818 5816 5813 5811 5808 5806 5803 5801 5798 5796 5794 5792 5790 5788 5786
5853 5853 5853 5852 5852 5851 5850 5849 5849 5847 5846 5845 5844 5842 5840 5839 5837 5835 5833 5832 5830 5828 5826 5823 5821 5819 5816 5814 5811 5809 5807 5804 5802 5799 5796 5794 5791 5789 5786 5784 5782 5780 5778
5849 5849 5848 5848 5847 5846 5845 5844 5843 5842 5841 5839 5838 5836 5835 5833 5831 5829 5827 5825 5823 5821 5819 5817 5815 5812 5810 5807 5805 5802 5800 5797 5795 5792 5789 5786 5784 5781 5779 5776 5774 5772 5770
5843 5843 5843 5843 5842 5841 5840 5839 5838 5836 5835 5833 5832 5830 5829 5827 5825 5823 5821 5819 5817 5815 5813 5810 5808 5806 5803 5801 5798 5795 5793 5790 5787 5784 5782 5779 5776 5773 5771 5768 5766 5764 5761
5837 5837 5837 5837 5837 5835 5834 5833 5832 5830 5829 5827 5826 5824 5822 5820 5819 5817 5814 5812 5810 5808 5806 5804 5802 5799 5796 5794 5791 5788 5785 5783 5780 5777 5774 5771 5768 5766 5763 5760 5758 5755 5753
5831 5831 5831 5831 5830 5829 5828 5827 5826 5824 5822 5821 5819 5817 5815 5814 5812 5810 5808 5805 5803 5801 5799 5797 5794 5792 5789 5787 5784 5781 5778 5775 5772 5769 5767 5764 5761 5758 5755 5752 5750 5747 5744
5824 5824 5823 5823 5823 5822 5821 5820 5818 5817 5815 5814 5812 5810 5809 5807 5804 5802 5800 5798 5796 5794 5792 5790 5787 5785 5782 5779 5777 5774 5771 5768 5764 5761 5758 5755 5752 5750 5747 5744 5741 5739 5736
5817 5817 5816 5816 5815 5814 5813 5812 5811 5810 5808 5807 5805 5803 5801 5799 5797 5795 5793 5791 5789 5787 5785 5782 5780 5778 5775 5772 5769 5766 5763 5760 5756 5753 5750 5747 5744 5741 5738 5736 5733 5730 5727
5809 5809 5809 5808 5807 5807 5806 5804 5803 5802 5801 5799 5798 5796 5793 5791 5790 5788 5786 5784 5782 5779 5777 5775 5772 5770 5767 5764 5762 5759 5756 5753 5749 5745 5742 5739 5736 5733 5730 5726 5724 5721 5718
5801 5801 5801 5800 5800 5799 5798 5797 5795 5794 5793 5792 5790 5788 5786 5784 5782 5780 5778 5776 5774 5772 5769 5767 5764 5762 5759 5757 5754 5751 5748 5745 5742 5738 5734 5731 5727 5724 5720 5717 5714 5711 5708
5793 5793 5793 5792 5792 5791 5790 5789 5787 5786 5785 5784 5782 5780 5778 5776 5774 5772 5770 5768 5766 5764 5762 5759 5757 5754 5752 5749 5746 5743 5740 5737 5734 5731 5727 5723 5719 5715 5712 5708 5705 5701 5698
5784 5784 5784 5784 5783 5783 5782 5781 5780 5779 5777 5775 5774 5772 5770 5768 5766 5765 5763 5760 5758 5756 5754 5752 5749 5747 5744 5741 5738 5735 5732 5729 5726 5723 5719 5715 5711 5706 5702 5699 5695 5692 5688
5776 5776 5776 5775 5775 5774 5773 5773 5772 5770 5769 5767 5766 5764 5762 5760 5759 5757 5755 5753 5751 5748 5746 5744 5741 5739 5736 5733 5730 5727 5724 5721 5717 5714 5711 5707 5703 5698 5693 5689 5685 5681 5678